When you browse on this site, cookies collect data to enhance your experience and personalize the content and advertising you see.
Visit our Privacy Policy to learn more. By continuing to use the site, you agree to this use of cookies and data.
  • In Austria
  • List of Countries
  • For 7 days
  • Water Temperature
  • Satellite Maps
  • Weather Map
  • News
  • Weather Widgets
  • user-avatar
    Login

    Hourly Weather Concord

    Today, 19 June, Wednesday

    Time Temperature Precipitation Wind Pressure Humidity
    00:00 +25°C° 0 mm 1 mps 741 mmHg 87%
    01:00 +22°C° 0 mm 0 mps 741 mmHg 88%
    02:00 +22°C° 0.1 mm 0 mps 740 mmHg 89%
    03:00 +24°C° 0.1 mm 1 mps 740 mmHg 89%
    04:00 +24°C° 0.1 mm 1 mps 740 mmHg 90%
    05:00 +24°C° 0.2 mm 1 mps 740 mmHg 90%
    06:00 +24°C° 0.2 mm 1 mps 740 mmHg 90%
    07:00 +24°C° 0.2 mm 1 mps 740 mmHg 89%
    08:00 +25°C° 0.6 mm 2 mps 740 mmHg 89%
    09:00 +25°C° 0.6 mm 2 mps 740 mmHg 89%
    10:00 +25°C° 0.6 mm 2 mps 740 mmHg 89%
    11:00 +27°C° 0.6 mm 3 mps 739 mmHg 83%
    12:00 +28°C° 0.6 mm 3 mps 739 mmHg 77%
    13:00 +30°C° 0.6 mm 3 mps 738 mmHg 71%
    14:00 +30°C° 0.9 mm 3 mps 738 mmHg 69%
    15:00 +31°C° 0.9 mm 3 mps 738 mmHg 67%
    16:00 +32°C° 0.9 mm 4 mps 737 mmHg 65%
    17:00 +30°C° 0.9 mm 3 mps 737 mmHg 69%
    18:00 +29°C° 0.9 mm 3 mps 737 mmHg 73%
    19:00 +28°C° 0.9 mm 3 mps 737 mmHg 77%
    20:00 +27°C° 0.1 mm 3 mps 737 mmHg 79%
    21:00 +26°C° 0.1 mm 3 mps 737 mmHg 82%
    22:00 +25°C° 0.1 mm 3 mps 737 mmHg 84%
    23:00 +25°C° 0 mm 3 mps 737 mmHg 85%

    Tomorrow, 20 June, Thursday

    Time Temperature Precipitation Wind Pressure Humidity
    00:00 +25°C° 0 mm 3 mps 737 mmHg 86%
    01:00 +24°C° 0 mm 3 mps 737 mmHg 87%
    02:00 +24°C° 0 mm 3 mps 737 mmHg 88%
    03:00 +22°C° 0 mm 3 mps 736 mmHg 89%
    04:00 +22°C° 0 mm 3 mps 736 mmHg 89%
    05:00 +24°C° 0 mm 3 mps 737 mmHg 87%
    06:00 +24°C° 0 mm 3 mps 737 mmHg 85%
    07:00 +25°C° 0 mm 3 mps 737 mmHg 83%
    08:00 +27°C° 0 mm 4 mps 737 mmHg 75%
    09:00 +29°C° 0 mm 4 mps 737 mmHg 67%
    10:00 +32°C° 0 mm 5 mps 737 mmHg 59%
    11:00 +33°C° 0 mm 5 mps 737 mmHg 55%
    12:00 +34°C° 0 mm 6 mps 737 mmHg 52%
    13:00 +35°C° 0 mm 6 mps 737 mmHg 48%
    14:00 +34°C° 0 mm 6 mps 737 mmHg 48%
    15:00 +34°C° 0 mm 6 mps 736 mmHg 49%
    16:00 +34°C° 0 mm 6 mps 736 mmHg 49%
    17:00 +33°C° 0 mm 6 mps 736 mmHg 54%
    18:00 +30°C° 0 mm 5 mps 736 mmHg 59%
    19:00 +29°C° 0 mm 5 mps 737 mmHg 63%
    20:00 +28°C° 0 mm 5 mps 737 mmHg 64%
    21:00 +27°C° 0 mm 5 mps 738 mmHg 64%
    22:00 +26°C° 0 mm 4 mps 738 mmHg 65%
    23:00 +25°C° 0 mm 4 mps 738 mmHg 68%

    Day after tomorrow, 21 June, Friday

    Time Temperature Precipitation Wind Pressure Humidity
    00:00 +25°C° 0 mm 4 mps 739 mmHg 71%
    01:00 +24°C° 0 mm 3 mps 739 mmHg 74%
    02:00 +22°C° 0 mm 3 mps 739 mmHg 76%
    03:00 +21°C° 0 mm 3 mps 739 mmHg 78%
    04:00 +21°C° 0 mm 2 mps 740 mmHg 81%
    05:00 +21°C° 0 mm 2 mps 740 mmHg 79%
    06:00 +23°C° 0 mm 2 mps 741 mmHg 77%
    07:00 +24°C° 0 mm 2 mps 742 mmHg 75%
    08:00 +25°C° 0 mm 2 mps 742 mmHg 68%
    09:00 +27°C° 0 mm 3 mps 743 mmHg 62%
    10:00 +29°C° 0 mm 3 mps 743 mmHg 56%
    11:00 +30°C° 0 mm 3 mps 743 mmHg 51%
    12:00 +31°C° 0 mm 3 mps 743 mmHg 47%
    13:00 +34°C° 0 mm 3 mps 743 mmHg 43%
    14:00 +34°C° 0 mm 3 mps 743 mmHg 42%
    15:00 +35°C° 0 mm 3 mps 743 mmHg 41%
    16:00 +36°C° 0 mm 2 mps 743 mmHg 40%
    17:00 +34°C° 0 mm 2 mps 743 mmHg 46%
    18:00 +32°C° 0 mm 1 mps 743 mmHg 52%
    19:00 +30°C° 0 mm 1 mps 743 mmHg 59%
    20:00 +27°C° 0 mm 0 mps 743 mmHg 61%
    21:00 +26°C° 0 mm 0 mps 744 mmHg 63%
    22:00 +25°C° 0 mm 0 mps 744 mmHg 65%
    23:00 +24°C° 0 mm 0 mps 744 mmHg 66%

    22 June, Saturday

    Time Temperature Precipitation Wind Pressure Humidity
    00:00 +26°C° 0 mm 1 mps 743 mmHg 67%
    01:00 +25°C° 0 mm 1 mps 743 mmHg 69%
    02:00 +24°C° 0.2 mm 1 mps 743 mmHg 73%
    03:00 +24°C° 0.2 mm 1 mps 743 mmHg 77%
    04:00 +21°C° 0.2 mm 0 mps 744 mmHg 82%
    05:00 +23°C° 0.2 mm 1 mps 744 mmHg 82%
    06:00 +23°C° 0.2 mm 2 mps 744 mmHg 83%
    07:00 +23°C° 0.2 mm 2 mps 745 mmHg 84%
    08:00 +25°C° 0 mm 2 mps 745 mmHg 77%
    09:00 +27°C° 0 mm 2 mps 745 mmHg 69%
    10:00 +29°C° 0 mm 2 mps 745 mmHg 61%
    11:00 +31°C° 0 mm 1 mps 745 mmHg 57%
    12:00 +33°C° 0 mm 1 mps 745 mmHg 53%
    13:00 +32°C° 0 mm 0 mps 745 mmHg 50%
    14:00 +34°C° 0 mm 1 mps 744 mmHg 51%
    15:00 +35°C° 0 mm 2 mps 744 mmHg 52%
    16:00 +34°C° 0 mm 2 mps 743 mmHg 53%
    17:00 +31°C° 3.7 mm 3 mps 744 mmHg 64%
    18:00 +28°C° 3.7 mm 4 mps 744 mmHg 76%
    19:00 +26°C° 3.7 mm 5 mps 744 mmHg 87%
    20:00 +25°C° 0.7 mm 4 mps 745 mmHg 74%
    21:00 +24°C° 0.7 mm 3 mps 745 mmHg 78%
    22:00 +23°C° 0.7 mm 2 mps 745 mmHg 81%
    23:00 +23°C° 0 mm 2 mps 745 mmHg 82%

    23 June, Sunday

    Time Temperature Precipitation Wind Pressure Humidity
    00:00 +23°C° 0 mm 1 mps 744 mmHg 83%
    01:00 +22°C° 0 mm 1 mps 744 mmHg 84%
    02:00 +22°C° 0 mm 1 mps 744 mmHg 84%
    03:00 +22°C° 0 mm 1 mps 744 mmHg 84%
    04:00 +22°C° 0 mm 1 mps 744 mmHg 84%
    05:00 +23°C° 0 mm 1 mps 744 mmHg 83%
    06:00 +22°C° 0 mm 0 mps 744 mmHg 81%
    07:00 +23°C° 0 mm 0 mps 745 mmHg 80%
    08:00 +25°C° 0 mm 0 mps 745 mmHg 73%
    09:00 +27°C° 0 mm 0 mps 745 mmHg 65%
    10:00 +30°C° 0 mm 0 mps 745 mmHg 58%
    11:00 +31°C° 0 mm 0 mps 745 mmHg 54%
    12:00 +34°C° 0 mm 1 mps 744 mmHg 50%
    13:00 +35°C° 0 mm 1 mps 744 mmHg 45%
    14:00 +35°C° 0 mm 1 mps 744 mmHg 46%
    15:00 +35°C° 0 mm 1 mps 743 mmHg 47%
    16:00 +35°C° 0 mm 1 mps 743 mmHg 48%
    17:00 +34°C° 0.1 mm 2 mps 743 mmHg 53%
    18:00 +31°C° 0.1 mm 2 mps 743 mmHg 59%
    19:00 +30°C° 0.1 mm 2 mps 743 mmHg 65%
    20:00 +28°C° 0.1 mm 2 mps 743 mmHg 67%
    21:00 +27°C° 0.1 mm 2 mps 743 mmHg 69%
    22:00 +25°C° 0.1 mm 2 mps 743 mmHg 71%
    23:00 +25°C° 0 mm 2 mps 743 mmHg 73%

    24 June, Monday

    Time Temperature Precipitation Wind Pressure Humidity
    00:00 +24°C° 0 mm 1 mps 743 mmHg 74%
    01:00 +24°C° 0 mm 1 mps 742 mmHg 75%
    02:00 +24°C° 0 mm 1 mps 742 mmHg 75%
    03:00 +24°C° 0 mm 1 mps 742 mmHg 74%
    04:00 +23°C° 0 mm 1 mps 742 mmHg 74%
    05:00 +24°C° 0 mm 1 mps 742 mmHg 73%
    06:00 +25°C° 0 mm 1 mps 742 mmHg 72%
    07:00 +26°C° 0 mm 1 mps 742 mmHg 72%
    08:00 +28°C° 0 mm 1 mps 742 mmHg 65%
    09:00 +30°C° 0 mm 1 mps 743 mmHg 59%
    10:00 +32°C° 0 mm 1 mps 743 mmHg 53%
    11:00 +35°C° 0 mm 2 mps 742 mmHg 48%
    12:00 +36°C° 0 mm 2 mps 742 mmHg 43%
    13:00 +38°C° 0 mm 2 mps 742 mmHg 38%
    14:00 +38°C° 0 mm 3 mps 742 mmHg 38%
    15:00 +38°C° 0 mm 3 mps 741 mmHg 39%
    16:00 +38°C° 0 mm 4 mps 741 mmHg 39%
    17:00 +36°C° 0.1 mm 4 mps 741 mmHg 46%
    18:00 +34°C° 0.1 mm 4 mps 741 mmHg 52%
    19:00 +30°C° 0.1 mm 4 mps 741 mmHg 59%
    20:00 +28°C° 0.4 mm 3 mps 741 mmHg 68%
    21:00 +26°C° 0.4 mm 2 mps 741 mmHg 78%
    22:00 +24°C° 0.4 mm 1 mps 742 mmHg 88%
    23:00 +23°C° 0.3 mm 1 mps 742 mmHg 88%
    Show more